RH
19 23 26 30 32 37 38 39 42 44 46 47 48 51 55 62 75 80 84 86 82 85
21 25 29 28 36 40 40 39 43 45 47 51 58 62 69 76 74 76 83 85 84 85
21 25 26 32 38 41 38 41 42 47 55 62 70 74 78 74 71 74 81 82 83 84
20 24 27 36 39 39 37 39 46 54 66 72 74 77 80 77 74 79 82 83 86 90
19 24 31 36 38 35 36 41 52 65 70 73 76 81 78 80 80 84 84 88 91 94
21 27 32 34 35 36 37 45 60 68 71 72 77 82 82 83 82 87 89 93 96 98
24 27 31 33 36 36 40 50 58 64 64 65 72 78 83 80 81 89 93 96 97 98
22 25 29 32 35 38 42 49 51 56 56 57 58 60 64 72 84 92 96 98 98 98
20 25 29 33 35 39 41 40 42 47 53 54 55 55 51 49 55 76 92 96 98 98
21 25 28 31 33 31 27 31 33 32 40 46 61 55 42 39 50 62 71 91 96 98
21 23 25 25 20 18 19 22 25 28 29 28 33 45 37 30 38 58 62 87 98 98
19 20 19 15 14 14 15 15 15 19 21 20 23 27 32 41 44 57 58 92 94 98
18 16 13 13 11 12 12 11 11 13 16 16 16 23 30 37 50 56 69 96 97 96
15 12 11 12 9 9 10 12 13 14 15 16 17 18 26 33 41 58 70 95 96 92